Regional Weather Roundup
Issued by NWS

Home | Current Version | Previous Version | Graphics & Text | Print | Product List | Glossary On
Versions: 1 2 3 4 5 6 7 8 9 10 11 12 13 14 15 16 17 18 19 20 21 22 23 24 25 26 27 28 29 30 31 32 33 34 35 36 37 38 39 40 41 42 43 44 45 46 47 48 49 50
000
ASUS43 KLOT 242309
RWRIL

ILLINOIS REGIONAL WEATHER ROUNDUP
NATIONAL WEATHER SERVICE CHICAGO/ROMEOVILLE IL
600 PM CDT WED AUG 24 2016

NOTE: "FAIR" INDICATES FEW OR NO CLOUDS BELOW 12,000 FEET WITH NO
SIGNIFICANT WEATHER AND/OR OBSTRUCTIONS TO VISIBILITY.

* THESE STATIONS ARE NOT UNDER NWS QUALITY CONTROL. THEY ALSO MAY NOT
  REPORT WEATHER SUCH AS PRECIPITATION OR FOG.

ILZ001-002-007-009-015-016-024-250000-
NORTHWEST ILLINOIS

CITY           SKY/WX    TMP DP  RH WIND       PRES   REMARKS
MOLINE         CLOUDY    84  71  65 SW6       29.95S HX  89
STERLING*      SUNNY     83  73  72 W10       29.95S HX  89
SAVANNA*       MOSUNNY   84  71  63 SW8       29.94S HX  89
$$

ILZ003-004-008-010-011-017-018-250000-
NORTH CENTRAL ILLINOIS

CITY           SKY/WX    TMP DP  RH WIND       PRES   REMARKS
ROCKFORD       MOSUNNY   84  73  69 W9        29.95R HX  90
FREEPORT*      PTSUNNY   83  72  69 W9        29.96S HX  88
ROCHELLE*      SUNNY     82  73  73 W8        29.96R HX  88
DE KALB*       MOSUNNY   82  73  75 W8        29.96S HX  87
$$

ILZ005-006-012>014-019>023-250000-
NORTHEAST ILLINOIS

CITY           SKY/WX    TMP DP  RH WIND       PRES   REMARKS
CHICAGO-OHARE  MOSUNNY   83  70  64 W12       29.92S HX  87
CHICAGO-MIDWAY PTSUNNY   85  71  63 W13       29.93R HX  90
AURORA         SUNNY     84  73  69 W12       29.95R HX  90
LANSING*       MOSUNNY   82  70  68 W13G18    29.95R HX  85
JOLIET*        SUNNY     84  74  71 W7        29.95R HX  92
WAUKEGAN       SUNNY     83  72  69 VRB6      29.91R HX  88
DUPAGE AIRPORT SUNNY     83  71  67 W12       29.94R HX  87
KANKAKEE*      SUNNY     83  71  67 W8        29.96S HX  87
WHEELING       SUNNY     83  70  64 W9        29.93S HX  87
MORRIS*        SUNNY     83  72  69 W8        29.94S HX  88
ROMEOVILLE*    SUNNY     82  71  68 W7        29.95S HX  86
NORTHERLY ISL    N/A     84  69  60 W8          N/A  HX  88
$$

LMZ740>746-250000-
SOUTHERN LAKE MICHIGAN

STATION/POSITION SKY/WX   TEMP    WIND        PRES    VSBY  WAVE
                          AIR SEA DIR/SP/G                  HT/PER
                          (F)     (DEG/KT/KT) (MB)    (MI)  (FT/S)
SOUTHERN BUOY              75 74  180/  8/  8 1012.3S         3/ 6
WILMETTE HARBOR            75 68  300/  6/  8   N/A           1/ 3
HARRISON CRIB              83     270/ 10/ 11   N/A
BURNHAM HARBOR             83     280/  9/ 13   N/A
CALUMET HARBOR             83     240/ 11/ 17 1012.9R
BURNS HARBOR               79     240/ 14/ 16 1013.9R
MICHIGAN CITY              79     210/ 13/ 15   N/A
MICHIGAN CITY 6N           77 74  250/  8/ 12   N/A           1/ 3
ST. JOSEPH                 76 75  220/  6/  8 1013.3R         2/ 4
$$

ILZ025>027-034>036-040-047-049-050-058-095>099-250000-
WEST-CENTRAL ILLINOIS

CITY           SKY/WX    TMP DP  RH WIND       PRES   REMARKS
QUINCY         MOSUNNY   87  75  67 W7        29.98F HX  96
GALESBURG*     CLOUDY    81  72  73 SW5       29.98F HX  85
MACOMB*        CLOUDY    82  75  78 SW3       30.01R HX  89
JACKSONVILLE*  SUNNY     86  74  68 SW7       29.99S HX  94
PITTSFIELD*    SUNNY     88  74  64 SW7       30.01S HX  97
$$

ILZ028>032-037-038-041>044-048-051>054-059>061-250000-
CENTRAL ILLINOIS

CITY           SKY/WX    TMP DP  RH WIND       PRES   REMARKS
PONTIAC        MOSUNNY   84  73  70 W9        29.98S HX  90
BLOOMINGTON    SUNNY     84  71  65 W10G17    30.00S HX  89
DECATUR        CLOUDY    87  74  64 SW9       30.00S HX  95
PEORIA         MOSUNNY   84  72  67 W6        29.98S HX  89
LACON*         SUNNY     83  70  65 W7        29.97R HX  86
LINCOLN*       SUNNY     87  75  67 SW5       29.99S HX  96
SPRINGFIELD    MOSUNNY   88  75  65 SW7       29.99F HX  97
TAYLORVILLE    CLOUDY    85  76  74 SW6       30.00F HX  94
$$

ILZ033-039-045-046-055>057-062-063-250000-
EAST-CENTRAL ILLINOIS

CITY           SKY/WX    TMP DP  RH WIND       PRES   REMARKS
CHAMPAIGN      MOSUNNY   83  75  77 SW7       30.00S HX  90
RANTOUL*       CLOUDY    85  75  72 W7        29.99S HX  93
MATTOON        CLOUDY    85  75  72 SW7       30.01S HX  93
PARIS*         CLOUDY    85  77  78 SW7       30.01S HX  96
$$

ILZ079-100>102-250000-
SOUTHWEST ILLINOIS

CITY           SKY/WX    TMP DP  RH WIND       PRES   REMARKS
ALTON          PTSUNNY   90  72  55 SW7       30.00S HX  96
BELLEVILLE     MOSUNNY   92  74  55 S9        29.98F HX 101
CAHOKIA*       SUNNY     93  73  52 VRB3      29.99S HX 102
SPARTA*        SUNNY     89  77  67 S8        30.02S HX 101
$$

ILZ064>066-069>071-074>076-080>082-084>086-088>090-092>094-250000-
SOUTH-CENTRAL ILLINOIS

CITY           SKY/WX    TMP DP  RH WIND       PRES   REMARKS
CARBONDALE     SUNNY     88  73  61 SW13      30.03F HX  95
CAIRO*         SUNNY     87  78  73 S10       30.04F HX  99
EFFINGHAM*     MOSUNNY   87  78  74 S5        30.03S HX 100
MARION         MOSUNNY   90  77  66 S12       30.04F HX 102
MT. VERNON     SUNNY     90  75  62 SW10      30.03S HX 100
CENTRALIA*     MOSUNNY   89  79  71 SW6       30.01S HX 105
SALEM*         SUNNY     89  77  66 SW8       30.01S HX 101
METROPOLIS*    SUNNY     90  75  61 SW6       30.06F HX 100
$$

ILZ067-068-072-073-078-083-087-091-250000-
SOUTHEAST ILLINOIS

CITY           SKY/WX    TMP DP  RH WIND       PRES   REMARKS
LAWRENCEVILLE  MOSUNNY   88  77  69 SW13      30.02S HX 100
FLORA*         SUNNY     89  78  71 SW10      30.02F HX 103
FAIRFIELD*     MOSUNNY   88  76  68 S6        30.01F HX  99
HARRISBURG*    MOSUNNY   89  78  69 S10G17    30.04S HX 102
ROBINSON*      MOSUNNY   84  78  82 SW7       30.03S HX  95
CARMI*         SUNNY     87  76  70 SW7       30.03S HX  98
$$

ABBREVIATIONS USED IN REMARKS
   TC - TEMPERATURE IN CELSIUS
  WCI - WIND CHILL INDEX
   HX - HEAT INDEX
  VSB - VISIBILITY
$$





USA.gov is the U.S. government's official web portal to all federal, state and local government web resources and services.